Regional Weather Roundup
Issued by NWS Northern Indiana

Home | Current Version | Previous Version | Graphics & Text | Print | Product List | Glossary On
Versions: 1 2 3 4 5 6 7 8 9 10 11 12 13 14 15 16 17 18 19 20 21 22 23 24 25 26 27 28 29 30 31 32 33 34 35 36 37 38 39 40 41 42 43 44 45 46 47 48 49 50
000
ASUS43 KIWX 011600
RWRIWX

KIWX WEATHER ROUNDUP
NATIONAL WEATHER SERVICE NORTHERN INDIANA
1100 AM EST SUN FEB 01 2015

NOTE: "FAIR" INDICATES FEW OR NO CLOUDS BELOW 12,000 FEET WITH NO
SIGNIFICANT WEATHER AND/OR OBSTRUCTIONS TO VISIBILITY.

* THESE STATIONS ARE NOT UNDER NWS QUALITY CONTROL. THEY ALSO MAY NOT
  REPORT WEATHER SUCH AS PRECIPITATION OR FOG.

INZ001>027-011700-
NORTHERN INDIANA

CITY           SKY/WX    TMP DP  RH WIND       PRES   REMARKS
GARY*          LGT SNOW  34  32  93 CALM      29.87F VSB 1
SOUTH BEND     SNOW      30  28  92 E9        29.92F VSB 1/2 WCI  22
GOSHEN         SNOW      31  30  96 E14       29.92F VSB 1/4 WCI  21
ANGOLA*        CLOUDY    25  25 100 E15       29.96F VSB 3/4 WCI  12
FORT WAYNE     LGT SNOW  34  32  92 E14       29.92F FOG     WCI  25
PERU/GRISSOM   LGT SNOW  32  32 100 SE12      29.86F FOG     WCI  23

$$
INZ028>050-011700-
CENTRAL INDIANA

CITY           SKY/WX    TMP DP  RH WIND       PRES   REMARKS
LAFAYETTE      HVY SNOW  31  31 100 E8        29.83F VSB 1/4 WCI  23
KOKOMO*        CLOUDY    34  30  86 SE9       29.87F WCI  26
MUNCIE*        CLOUDY    36  30  79 S8        29.89F
INDIANAPOLIS   LGT SNOW  30  30 100 SE13      29.83F FOG     WCI  20

$$
MIZ043>046-050>051-056>058-064>065-071>073-077>080-011700-
SOUTHWEST LOWER MICHIGAN

CITY           SKY/WX    TMP DP  RH WIND       PRES   REMARKS
BATTLE CREEK   SNOW      22  17  81 NE15G23   30.01F VSB 1/2 WCI   9
BENTON HARBOR  SNOW      23  22  96 E12G21    29.96F VSB 1/2 WCI  12
COLDWATER*     SNOW      26  24  91 E13       29.98F VSB 1/2 WCI  15
HILLSDALE*     LGT SNOW  24  22  91 E14       29.98F VSB 3/4 WCI  12
HOLLAND        SNOW      20  14  77 E15G24    30.05F VSB 1/2 WCI   6
GRAND RAPIDS   LGT SNOW  17  13  84 E20       30.08F VSB 3/4 WCI   1
KALAMAZOO      SNOW      22  18  85 NE13      30.00F VSB 1/4 WCI  10
STURGIS*       SNOW      27  25  93 E17G25    29.95F VSB 1/2 WCI  14
THREE RIVERS*  SNOW      27  24  91 E14       29.98S VSB 1/2 WCI  15

$$
OHZ001>008-015>018-024>025-011700-
NORTHWEST OHIO

CITY           SKY/WX    TMP DP  RH WIND       PRES   REMARKS
DEFIANCE       LGT SNOW  29  26  89 E14G22    29.99F VSB 3/4 WCI  18
FINDLAY        SNOW      33  31  92 E10       29.97F VSB 1/2 WCI  25
TOLEDO EXPRESS LGT SNOW  25  22  88 E15G26    30.03F VSB 1   WCI  13
TOLEDO METCALF LGT SNOW  27  24  89 NE10G22   30.06F VSB 1   WCI  17
LIMA           CLOUDY    35  31  85 E10       29.93F FOG     WCI  27

$$
AND FOR LAKE MICHIGAN COASTAL AND OPEN LAKE BUOY OBSERVATIONS

STATION/POSITION TEMP    WIND        PRES    VSBY  WAVE
                 AIR SEA DIR/SP/G                  HT/PER
                 (F)     (DEG/KT/KT) (MB)    (MI)  (FT/S)
CALUMET HARBOR    31      50/ 17/ 21   N/A
MICHIGAN CITY     30      60/ 10/ 13   N/A
SAINT JOSEPH      26      30/  4/ 12 1014.9F

$$
&&


USA.gov is the U.S. government's official web portal to all federal, state and local government web resources and services.